Location: New Frontier Mobile Home Park
(32.8448°N, 116.9675°W)
Time: 23:06:01
(UTC+00:00)

Cosmos 1464 Rocket - Pass Details

Date: 14 July 2020
Orbit: 952 x 1002 km, 82.9° (Epoch: 05 August)

Event Time Altitude Azimuth Distance (km) Brightness Sun altitude
Exits shadow 10:43:00 26° 172° (S) 1,864 5.1 -22.2°
Maximum altitude 10:46:47 72° 93° (E) 1,052 4.2 -21.7°
Drops below altitude 10° 10:53:08 10° 11° (N) 2,771 7.2 -20.8°
Sets 10:55:40 0° 9° (N) 3,719 7.9 -20.4°
